owner,sensor,date,latitude,longitude,vertical_datum,direction_of_sea_water_velocity,sea_water_speed,upward_sea_water_velocity,qcFlag 
TABS,ioos:station:wmo:42050:1,2014-04-01T00:00:00Z,28.8425,-94.2433,2.0,143.5520629,8.416228371,-99999.0,'11133222,11111222,99999999' 
TABS,ioos:station:wmo:42050:1,2014-04-01T00:30:00Z,28.8425,-94.2433,2.0,161.7350263,8.519213579,-99999.0,'11133222,11111222,99999999' 
TABS,ioos:station:wmo:42050:1,2014-04-01T01:00:00Z,28.8425,-94.2433,2.0,170.1216221,7.927527988,-99999.0,'11133222,11111222,99999999' 
TABS,ioos:station:wmo:42050:1,2014-04-01T01:30:00Z,28.8425,-94.2433,2.0,180.4503358,7.630235907,-99999.0,'11133222,11111222,99999999' 
TABS,ioos:station:wmo:42050:1,2014-04-01T02:00:00Z,28.8425,-94.2433,2.0,182.9480334,4.666176165,-99999.0,'11133222,11111222,99999999' 
TABS,ioos:station:wmo:42050:1,2014-04-01T02:30:00Z,28.8425,-94.2433,2.0,197.9407795,3.668378388,-99999.0,'11133222,11111222,99999999' 
TABS,ioos:station:wmo:42050:1,2014-04-01T03:00:00Z,28.8425,-94.2433,2.0,263.6154301,1.438923209,-99999.0,'11133222,11111222,99999999' 
TABS,ioos:station:wmo:42050:1,2014-04-01T03:30:00Z,28.8425,-94.2433,2.0,296.56541,3.130495168,-99999.0,'11133222,11111222,99999999' 
TABS,ioos:station:wmo:42050:1,2014-04-01T04:00:00Z,28.8425,-94.2433,2.0,302.7671501,3.270382241,-99999.0,'11133222,11111222,99999999' 
TABS,ioos:station:wmo:42050:1,2014-04-01T04:30:00Z,28.8425,-94.2433,2.0,287.4615567,6.69867151,-99999.0,'11133222,11111222,99999999' 
TABS,ioos:station:wmo:42050:1,2014-04-01T05:00:00Z,28.8425,-94.2433,2.0,307.1968466,6.66610831,-99999.0,'11133222,11111222,99999999' 
TABS,ioos:station:wmo:42050:1,2014-04-01T05:30:00Z,28.8425,-94.2433,2.0,314.3354057,7.311976477,-99999.0,'11133222,11111222,99999999' 
TABS,ioos:station:wmo:42050:1,2014-04-01T06:00:00Z,28.8425,-94.2433,2.0,322.6747773,8.048254469,-99999.0,'11133222,11111222,99999999' 
TABS,ioos:station:wmo:42050:1,2014-04-01T06:30:00Z,28.8425,-94.2433,2.0,334.0093069,11.15853933,-99999.0,'11111222,11111222,99999999' 
TABS,ioos:station:wmo:42050:1,2014-04-01T07:00:00Z,28.8425,-94.2433,2.0,334.5122732,9.9925172,-99999.0,'11133222,11111222,99999999' 
TABS,ioos:station:wmo:42050:1,2014-04-01T07:30:00Z,28.8425,-94.2433,2.0,346.7073799,10.65548685,-99999.0,'11111222,11111222,99999999' 
TABS,ioos:station:wmo:42050:1,2014-04-01T08:00:00Z,28.8425,-94.2433,2.0,350.4152406,10.75007442,-99999.0,'11111222,11111222,99999999' 
TABS,ioos:station:wmo:42050:1,2014-04-01T08:30:00Z,28.8425,-94.2433,2.0,341.3723908,8.452816099,-99999.0,'11133222,11111222,99999999' 
TABS,ioos:station:wmo:42050:1,2014-04-01T09:00:00Z,28.8425,-94.2433,2.0,351.2480972,7.294943454,-99999.0,'11133222,11111222,99999999' 
TABS,ioos:station:wmo:42050:1,2014-04-01T09:30:00Z,28.8425,-94.2433,2.0,350.4013298,6.896557112,-99999.0,'11133222,11111222,99999999' 
TABS,ioos:station:wmo:42050:1,2014-04-01T10:00:00Z,28.8425,-94.2433,2.0,345.848438,6.012470374,-99999.0,'11133222,11111222,99999999' 
TABS,ioos:station:wmo:42050:1,2014-04-01T10:30:00Z,28.8425,-94.2433,2.0,327.8200609,3.473629226,-99999.0,'11133222,11111222,99999999' 
TABS,ioos:station:wmo:42050:1,2014-04-01T11:00:00Z,28.8425,-94.2433,2.0,300.2920462,1.169700816,-99999.0,'11133222,11111222,99999999' 
TABS,ioos:station:wmo:42050:1,2014-04-01T11:30:00Z,28.8425,-94.2433,2.0,229.134346,1.17686023,-99999.0,'11133222,11111222,99999999' 
TABS,ioos:station:wmo:42050:1,2014-04-01T12:00:00Z,28.8425,-94.2433,2.0,248.1689133,3.630344336,-99999.0,'11133222,11111222,99999999' 
TABS,ioos:station:wmo:42050:1,2014-04-01T12:30:00Z,28.8425,-94.2433,2.0,222.5548383,3.149492023,-99999.0,'11133222,11111222,99999999' 
TABS,ioos:station:wmo:42050:1,2014-04-01T13:00:00Z,28.8425,-94.2433,2.0,237.7240102,3.146108708,-99999.0,'11133222,11111222,99999999' 
TABS,ioos:station:wmo:42050:1,2014-04-01T13:30:00Z,28.8425,-94.2433,2.0,255.9164048,2.958935619,-99999.0,'11133222,11111222,99999999' 
TABS,ioos:station:wmo:42050:1,2014-04-01T14:00:00Z,28.8425,-94.2433,2.0,282.6999757,3.639024595,-99999.0,'11133222,11111222,99999999' 
TABS,ioos:station:wmo:42050:1,2014-04-01T14:30:00Z,28.8425,-94.2433,2.0,288.6526289,2.501379619,-99999.0,'11133222,11111222,99999999' 
TABS,ioos:station:wmo:42050:1,2014-04-01T15:00:00Z,28.8425,-94.2433,2.0,332.7585326,2.272003521,-99999.0,'11133222,11111222,99999999' 
TABS,ioos:station:wmo:42050:1,2014-04-01T15:30:00Z,28.8425,-94.2433,2.0,357.4591716,3.383326765,-99999.0,'11133222,11111222,99999999' 
TABS,ioos:station:wmo:42050:1,2014-04-01T16:00:00Z,28.8425,-94.2433,2.0,359.4357396,6.090295559,-99999.0,'11133222,11144222,99999999' 
TABS,ioos:station:wmo:42050:1,2014-04-01T16:30:00Z,28.8425,-94.2433,2.0,13.0075151,6.753280684,-99999.0,'11133222,11111222,99999999' 
TABS,ioos:station:wmo:42050:1,2014-04-01T17:00:00Z,28.8425,-94.2433,2.0,21.0883216,7.309534869,-99999.0,'11133222,11111222,99999999' 
TABS,ioos:station:wmo:42050:1,2014-04-01T17:30:00Z,28.8425,-94.2433,2.0,32.43213021,8.968890678,-99999.0,'11133222,11111222,99999999' 
TABS,ioos:station:wmo:42050:1,2014-04-01T18:00:00Z,28.8425,-94.2433,2.0,22.39939597,9.788534109,-99999.0,'11133222,11111222,99999999' 
TABS,ioos:station:wmo:42050:1,2014-04-01T18:30:00Z,28.8425,-94.2433,2.0,41.19090849,11.0694625,-99999.0,'11111222,11111222,99999999' 
TABS,ioos:station:wmo:42050:1,2014-04-01T19:00:00Z,28.8425,-94.2433,2.0,28.44307257,9.826087726,-99999.0,'11133222,11111222,99999999' 
TABS,ioos:station:wmo:42050:1,2014-04-01T19:30:00Z,28.8425,-94.2433,2.0,46.67185381,9.210450586,-99999.0,'11133222,11111222,99999999' 
TABS,ioos:station:wmo:42050:1,2014-04-01T20:00:00Z,28.8425,-94.2433,2.0,51.62596444,8.456914331,-99999.0,'11133222,11111222,99999999' 
TABS,ioos:station:wmo:42050:1,2014-04-01T20:30:00Z,28.8425,-94.2433,2.0,39.03010321,6.526637726,-99999.0,'11133222,11111222,99999999' 
TABS,ioos:station:wmo:42050:1,2014-04-01T21:00:00Z,28.8425,-94.2433,2.0,59.32059505,3.802170433,-99999.0,'11133222,11111222,99999999' 
TABS,ioos:station:wmo:42050:1,2014-04-01T21:30:00Z,28.8425,-94.2433,2.0,60.17168726,5.106515446,-99999.0,'11133222,11111222,99999999' 
TABS,ioos:station:wmo:42050:1,2014-04-01T22:00:00Z,28.8425,-94.2433,2.0,74.19444342,3.377706322,-99999.0,'11133222,11111222,99999999' 
TABS,ioos:station:wmo:42050:1,2014-04-01T22:30:00Z,28.8425,-94.2433,2.0,107.3316871,4.598804192,-99999.0,'11133222,11111222,99999999' 
TABS,ioos:station:wmo:42050:1,2014-04-01T23:00:00Z,28.8425,-94.2433,2.0,147.4006997,4.807348542,-99999.0,'11133222,11111222,99999999' 
TABS,ioos:station:wmo:42050:1,2014-04-01T23:30:00Z,28.8425,-94.2433,2.0,175.6747392,5.966992542,-99999.0,'11133222,11111222,99999999' 
TABS,ioos:station:wmo:42050:1,2014-04-02T00:00:00Z,28.8425,-94.2433,2.0,182.6392095,8.468984591,-99999.0,'11133222,11111222,99999999' 
TABS,ioos:station:wmo:42050:1,2014-04-02T00:30:00Z,28.8425,-94.2433,2.0,182.9407079,8.381038122,-99999.0,'11133222,11111222,99999999' 
TABS,ioos:station:wmo:42050:1,2014-04-02T01:00:00Z,28.8425,-94.2433,2.0,195.7496721,11.27324709,-99999.0,'11111222,11111222,99999999' 
TABS,ioos:station:wmo:42050:1,2014-04-02T01:30:00Z,28.8425,-94.2433,2.0,194.1293662,8.930173571,-99999.0,'11133222,11111222,99999999' 
TABS,ioos:station:wmo:42050:1,2014-04-02T02:00:00Z,28.8425,-94.2433,2.0,221.5961656,11.55328957,-99999.0,'11111222,11111222,99999999' 
TABS,ioos:station:wmo:42050:1,2014-04-02T02:30:00Z,28.8425,-94.2433,2.0,233.7731314,10.15264005,-99999.0,'11111222,11111222,99999999' 
TABS,ioos:station:wmo:42050:1,2014-04-02T03:00:00Z,28.8425,-94.2433,2.0,227.7776066,12.69334077,-99999.0,'11111222,11111222,99999999' 
TABS,ioos:station:wmo:42050:1,2014-04-02T03:30:00Z,28.8425,-94.2433,2.0,233.7226909,11.98264161,-99999.0,'11111222,11111222,99999999' 
TABS,ioos:station:wmo:42050:1,2014-04-02T04:00:00Z,28.8425,-94.2433,2.0,249.7107209,11.04529312,-99999.0,'11111222,11111222,99999999' 
TABS,ioos:station:wmo:42050:1,2014-04-02T04:30:00Z,28.8425,-94.2433,2.0,251.5021918,8.699431016,-99999.0,'11133222,11111222,99999999' 
TABS,ioos:station:wmo:42050:1,2014-04-02T05:00:00Z,28.8425,-94.2433,2.0,273.0732676,8.021533519,-99999.0,'11133222,11111222,99999999' 
TABS,ioos:station:wmo:42050:1,2014-04-02T05:30:00Z,28.8425,-94.2433,2.0,293.5737131,7.02635752,-99999.0,'11133222,11111222,99999999' 
TABS,ioos:station:wmo:42050:1,2014-04-02T06:00:00Z,28.8425,-94.2433,2.0,314.5977768,9.058261423,-99999.0,'11133222,11111222,99999999' 
TABS,ioos:station:wmo:42050:1,2014-04-02T06:30:00Z,28.8425,-94.2433,2.0,324.6509446,9.195237898,-99999.0,'11133222,11111222,99999999' 
TABS,ioos:station:wmo:42050:1,2014-04-02T07:00:00Z,28.8425,-94.2433,2.0,325.3705109,9.977624968,-99999.0,'11133222,11111222,99999999' 
TABS,ioos:station:wmo:42050:1,2014-04-02T07:30:00Z,28.8425,-94.2433,2.0,337.0387759,11.74020869,-99999.0,'11111222,11111222,99999999' 
TABS,ioos:station:wmo:42050:1,2014-04-02T08:00:00Z,28.8425,-94.2433,2.0,339.8936046,11.49028285,-99999.0,'11111222,11111222,99999999' 
TABS,ioos:station:wmo:42050:1,2014-04-02T08:30:00Z,28.8425,-94.2433,2.0,347.1982526,11.14709828,-99999.0,'11111222,11111222,99999999' 
TABS,ioos:station:wmo:42050:1,2014-04-02T09:00:00Z,28.8425,-94.2433,2.0,342.7681391,10.09305207,-99999.0,'11111222,11111222,99999999' 
TABS,ioos:station:wmo:42050:1,2014-04-02T09:30:00Z,28.8425,-94.2433,2.0,347.2124379,10.79782385,-99999.0,'11111222,11111222,99999999' 
TABS,ioos:station:wmo:42050:1,2014-04-02T10:00:00Z,28.8425,-94.2433,2.0,341.0832399,10.1481082,-99999.0,'11111222,11111222,99999999' 
TABS,ioos:station:wmo:42050:1,2014-04-02T10:30:00Z,28.8425,-94.2433,2.0,359.0661251,7.360978196,-99999.0,'11133222,11144222,99999999' 
TABS,ioos:station:wmo:42050:1,2014-04-02T11:00:00Z,28.8425,-94.2433,2.0,337.0166214,6.300126983,-99999.0,'11133222,11111222,99999999' 
TABS,ioos:station:wmo:42050:1,2014-04-02T11:30:00Z,28.8425,-94.2433,2.0,345.334717,4.858281589,-99999.0,'11133222,11111222,99999999' 
TABS,ioos:station:wmo:42050:1,2014-04-02T12:00:00Z,28.8425,-94.2433,2.0,300.4261336,1.461232357,-99999.0,'11133222,11111222,99999999' 
TABS,ioos:station:wmo:42050:1,2014-04-02T12:30:00Z,28.8425,-94.2433,2.0,280.5820317,1.85148589,-99999.0,'11133222,11111222,99999999' 
TABS,ioos:station:wmo:42050:1,2014-04-02T13:00:00Z,28.8425,-94.2433,2.0,249.3041767,1.443121616,-99999.0,'11133222,11111222,99999999' 
TABS,ioos:station:wmo:42050:1,2014-04-02T13:30:00Z,28.8425,-94.2433,2.0,157.6788878,3.68620401,-99999.0,'11133222,11111222,99999999' 
TABS,ioos:station:wmo:42050:1,2014-04-02T14:00:00Z,28.8425,-94.2433,2.0,176.3475753,2.354782368,-99999.0,'11133222,11111222,99999999' 
TABS,ioos:station:wmo:42050:1,2014-04-02T14:30:00Z,28.8425,-94.2433,2.0,208.9208733,5.004078337,-99999.0,'11133222,11111222,99999999' 
TABS,ioos:station:wmo:42050:1,2014-04-02T15:00:00Z,28.8425,-94.2433,2.0,200.1360459,4.473432686,-99999.0,'11133222,11111222,99999999' 
TABS,ioos:station:wmo:42050:1,2014-04-02T15:30:00Z,28.8425,-94.2433,2.0,250.4837517,4.190763654,-99999.0,'11133222,11111222,99999999' 
TABS,ioos:station:wmo:42050:1,2014-04-02T16:00:00Z,28.8425,-94.2433,2.0,262.787843,5.735372699,-99999.0,'11133222,11111222,99999999' 
TABS,ioos:station:wmo:42050:1,2014-04-02T16:30:00Z,28.8425,-94.2433,2.0,267.8551493,4.543181704,-99999.0,'11133222,11111222,99999999' 
TABS,ioos:station:wmo:42050:1,2014-04-02T17:00:00Z,28.8425,-94.2433,2.0,266.1311201,7.707561223,-99999.0,'11133222,11111222,99999999' 
TABS,ioos:station:wmo:42050:1,2014-04-02T17:30:00Z,28.8425,-94.2433,2.0,296.2698838,6.936375134,-99999.0,'11133222,11111222,99999999' 
TABS,ioos:station:wmo:42050:1,2014-04-02T18:00:00Z,28.8425,-94.2433,2.0,311.4837764,6.340544141,-99999.0,'11133222,11111222,99999999' 
TABS,ioos:station:wmo:42050:1,2014-04-02T18:30:00Z,28.8425,-94.2433,2.0,290.4271119,5.186106439,-99999.0,'11133222,11111222,99999999' 
TABS,ioos:station:wmo:42050:1,2014-04-02T19:00:00Z,28.8425,-94.2433,2.0,301.7970282,4.365100228,-99999.0,'11133222,11111222,99999999' 
TABS,ioos:station:wmo:42050:1,2014-04-02T19:30:00Z,28.8425,-94.2433,2.0,286.7516563,5.273793701,-99999.0,'11133222,11111222,99999999' 
TABS,ioos:station:wmo:42050:1,2014-04-02T21:00:00Z,28.8425,-94.2433,2.0,290.2602273,5.660185509,-99999.0,'11133222,11111222,99999999' 
TABS,ioos:station:wmo:42050:1,2014-04-02T21:30:00Z,28.8425,-94.2433,2.0,284.0366316,7.132972732,-99999.0,'11133222,11111222,99999999' 
TABS,ioos:station:wmo:42050:1,2014-04-02T22:00:00Z,28.8425,-94.2433,2.0,285.443199,8.299644571,-99999.0,'11133222,11111222,99999999' 
TABS,ioos:station:wmo:42050:1,2014-04-02T22:30:00Z,28.8425,-94.2433,2.0,281.5869016,10.15697297,-99999.0,'11111222,11111222,99999999' 
TABS,ioos:station:wmo:42050:1,2014-04-02T23:00:00Z,28.8425,-94.2433,2.0,270.4230366,9.490258163,-99999.0,'11133222,11111222,99999999' 
TABS,ioos:station:wmo:42050:1,2014-04-02T23:30:00Z,28.8425,-94.2433,2.0,252.6422627,10.25708048,-99999.0,'11111222,11111222,99999999' 
TABS,ioos:station:wmo:42050:1,2014-04-03T00:00:00Z,28.8425,-94.2433,2.0,239.2728031,10.78392322,-99999.0,'11111222,11111222,99999999' 
TABS,ioos:station:wmo:42050:1,2014-04-03T00:30:00Z,28.8425,-94.2433,2.0,239.80305,14.47406301,-99999.0,'11111222,11111222,99999999' 
TABS,ioos:station:wmo:42050:1,2014-04-03T01:00:00Z,28.8425,-94.2433,2.0,236.2384535,15.63701058,-99999.0,'11111222,11111222,99999999' 
TABS,ioos:station:wmo:42050:1,2014-04-03T01:30:00Z,28.8425,-94.2433,2.0,241.1163246,15.92041771,-99999.0,'11111222,11111222,99999999' 
TABS,ioos:station:wmo:42050:1,2014-04-03T02:00:00Z,28.8425,-94.2433,2.0,244.1009645,16.91923462,-99999.0,'11111222,11111222,99999999' 
TABS,ioos:station:wmo:42050:1,2014-04-03T02:30:00Z,28.8425,-94.2433,2.0,244.4857683,17.55161531,-99999.0,'11111222,11111222,99999999' 
TABS,ioos:station:wmo:42050:1,2014-04-03T03:00:00Z,28.8425,-94.2433,2.0,255.2924899,17.60686798,-99999.0,'11111222,11111222,99999999' 
TABS,ioos:station:wmo:42050:1,2014-04-03T03:30:00Z,28.8425,-94.2433,2.0,266.4660254,16.7117713,-99999.0,'11111222,11111222,99999999' 
TABS,ioos:station:wmo:42050:1,2014-04-03T04:00:00Z,28.8425,-94.2433,2.0,269.7358929,15.21016108,-99999.0,'11111222,11111222,99999999' 
TABS,ioos:station:wmo:42050:1,2014-04-03T04:30:00Z,28.8425,-94.2433,2.0,278.4913272,17.0670677,-99999.0,'11111222,11111222,99999999' 
TABS,ioos:station:wmo:42050:1,2014-04-03T05:00:00Z,28.8425,-94.2433,2.0,286.0794215,17.07808537,-99999.0,'11111222,11111222,99999999' 
TABS,ioos:station:wmo:42050:1,2014-04-03T05:30:00Z,28.8425,-94.2433,2.0,293.959225,16.03130063,-99999.0,'11111222,11111222,99999999' 
TABS,ioos:station:wmo:42050:1,2014-04-03T06:00:00Z,28.8425,-94.2433,2.0,310.1571561,16.4991424,-99999.0,'11111222,11111222,99999999' 
TABS,ioos:station:wmo:42050:1,2014-04-03T06:30:00Z,28.8425,-94.2433,2.0,306.4155145,18.90059523,-99999.0,'11111222,11111222,99999999' 
TABS,ioos:station:wmo:42050:1,2014-04-03T07:00:00Z,28.8425,-94.2433,2.0,314.6425021,18.11642901,-99999.0,'11111222,11111222,99999999' 
TABS,ioos:station:wmo:42050:1,2014-04-03T07:30:00Z,28.8425,-94.2433,2.0,319.5875954,18.12463793,-99999.0,'11111222,11111222,99999999' 
TABS,ioos:station:wmo:42050:1,2014-04-03T08:00:00Z,28.8425,-94.2433,2.0,321.6140682,18.97064311,-99999.0,'11111222,11111222,99999999' 
TABS,ioos:station:wmo:42050:1,2014-04-03T08:30:00Z,28.8425,-94.2433,2.0,332.4067347,18.43711474,-99999.0,'11111222,11111222,99999999' 
TABS,ioos:station:wmo:42050:1,2014-04-03T09:00:00Z,28.8425,-94.2433,2.0,328.762044,16.46748311,-99999.0,'11111222,11111222,99999999' 
TABS,ioos:station:wmo:42050:1,2014-04-03T09:30:00Z,28.8425,-94.2433,2.0,331.2995726,18.24109646,-99999.0,'11111222,11111222,99999999' 
TABS,ioos:station:wmo:42050:1,2014-04-03T10:00:00Z,28.8425,-94.2433,2.0,334.4044446,16.92051122,-99999.0,'11111222,11111222,99999999' 
TABS,ioos:station:wmo:42050:1,2014-04-03T10:30:00Z,28.8425,-94.2433,2.0,333.9887853,13.88663026,-99999.0,'11111222,11111222,99999999' 
TABS,ioos:station:wmo:42050:1,2014-04-03T11:00:00Z,28.8425,-94.2433,2.0,335.8413316,14.80688016,-99999.0,'11111222,11111222,99999999' 
TABS,ioos:station:wmo:42050:1,2014-04-03T11:30:00Z,28.8425,-94.2433,2.0,342.2109009,13.19069748,-99999.0,'11111222,11111222,99999999' 
TABS,ioos:station:wmo:42050:1,2014-04-03T12:00:00Z,28.8425,-94.2433,2.0,344.1145072,11.87345358,-99999.0,'11111222,11111222,99999999' 
TABS,ioos:station:wmo:42050:1,2014-04-03T12:30:00Z,28.8425,-94.2433,2.0,343.8212847,12.13041219,-99999.0,'11111222,11111222,99999999' 
TABS,ioos:station:wmo:42050:1,2014-04-03T13:00:00Z,28.8425,-94.2433,2.0,354.5598911,7.383258088,-99999.0,'11133222,11111222,99999999' 
TABS,ioos:station:wmo:42050:1,2014-04-03T13:30:00Z,28.8425,-94.2433,2.0,336.861701,5.013282358,-99999.0,'11133222,11111222,99999999' 
TABS,ioos:station:wmo:42050:1,2014-04-03T14:00:00Z,28.8425,-94.2433,2.0,345.8919299,3.856319489,-99999.0,'11133222,11111222,99999999' 
TABS,ioos:station:wmo:42050:1,2014-04-03T14:30:00Z,28.8425,-94.2433,2.0,346.7702966,3.102337828,-99999.0,'11133222,11111222,99999999' 
TABS,ioos:station:wmo:42050:1,2014-04-03T15:00:00Z,28.8425,-94.2433,2.0,309.3597794,2.302172887,-99999.0,'11133222,11111222,99999999' 
TABS,ioos:station:wmo:42050:1,2014-04-03T15:30:00Z,28.8425,-94.2433,2.0,341.0649188,1.448378404,-99999.0,'11133222,11111222,99999999' 
TABS,ioos:station:wmo:42050:1,2014-04-03T16:00:00Z,28.8425,-94.2433,2.0,321.0918152,5.397416048,-99999.0,'11133222,11111222,99999999' 
TABS,ioos:station:wmo:42050:1,2014-04-03T16:30:00Z,28.8425,-94.2433,2.0,325.8900759,7.186334253,-99999.0,'11133222,11111222,99999999' 
TABS,ioos:station:wmo:42050:1,2014-04-03T17:00:00Z,28.8425,-94.2433,2.0,328.1893774,8.119630533,-99999.0,'11133222,11111222,99999999' 
TABS,ioos:station:wmo:42050:1,2014-04-03T17:30:00Z,28.8425,-94.2433,2.0,336.7064724,9.482963672,-99999.0,'11133222,11111222,99999999' 
TABS,ioos:station:wmo:42050:1,2014-04-03T18:00:00Z,28.8425,-94.2433,2.0,339.2912213,8.766413178,-99999.0,'11133222,11111222,99999999' 
TABS,ioos:station:wmo:42050:1,2014-04-03T18:30:00Z,28.8425,-94.2433,2.0,350.9458079,9.467977609,-99999.0,'11133222,11111222,99999999' 
TABS,ioos:station:wmo:42050:1,2014-04-03T19:00:00Z,28.8425,-94.2433,2.0,349.2235694,10.53581511,-99999.0,'11111222,11111222,99999999' 
TABS,ioos:station:wmo:42050:1,2014-04-03T19:30:00Z,28.8425,-94.2433,2.0,348.2216893,9.111860403,-99999.0,'11133222,11111222,99999999' 
TABS,ioos:station:wmo:42050:1,2014-04-03T20:00:00Z,28.8425,-94.2433,2.0,334.5095863,8.109408117,-99999.0,'11133222,11111222,99999999' 
TABS,ioos:station:wmo:42050:1,2014-04-03T20:30:00Z,28.8425,-94.2433,2.0,338.4263047,9.355404855,-99999.0,'11133222,11111222,99999999' 
TABS,ioos:station:wmo:42050:1,2014-04-03T21:00:00Z,28.8425,-94.2433,2.0,330.901411,8.800823825,-99999.0,'11133222,11111222,99999999' 
TABS,ioos:station:wmo:42050:1,2014-04-03T21:30:00Z,28.8425,-94.2433,2.0,336.8090624,10.18281395,-99999.0,'11111222,11111222,99999999' 
TABS,ioos:station:wmo:42050:1,2014-04-03T22:00:00Z,28.8425,-94.2433,2.0,325.8920128,9.87947367,-99999.0,'11133222,11111222,99999999' 
TABS,ioos:station:wmo:42050:1,2014-04-03T22:30:00Z,28.8425,-94.2433,2.0,326.2745012,8.897392877,-99999.0,'11133222,11111222,99999999' 
TABS,ioos:station:wmo:42050:1,2014-04-03T23:00:00Z,28.8425,-94.2433,2.0,314.3048845,7.573671501,-99999.0,'11133222,11111222,99999999' 
TABS,ioos:station:wmo:42050:1,2014-04-03T23:30:00Z,28.8425,-94.2433,2.0,303.5527462,5.771672201,-99999.0,'11133222,11111222,99999999' 
TABS,ioos:station:wmo:42050:1,2014-04-04T00:00:00Z,28.8425,-94.2433,2.0,281.5524398,7.889822558,-99999.0,'11133222,11111222,99999999' 
TABS,ioos:station:wmo:42050:1,2014-04-04T00:30:00Z,28.8425,-94.2433,2.0,275.8213867,10.8459255,-99999.0,'11111222,11111222,99999999' 
TABS,ioos:station:wmo:42050:1,2014-04-04T01:00:00Z,28.8425,-94.2433,2.0,269.1068686,10.91132439,-99999.0,'11111222,11111222,99999999' 
TABS,ioos:station:wmo:42050:1,2014-04-04T01:30:00Z,28.8425,-94.2433,2.0,263.4484644,13.49813691,-99999.0,'11111222,11111222,99999999' 
TABS,ioos:station:wmo:42050:1,2014-04-04T02:00:00Z,28.8425,-94.2433,2.0,260.9178963,15.83854791,-99999.0,'11111222,11111222,99999999' 
TABS,ioos:station:wmo:42050:1,2014-04-04T02:30:00Z,28.8425,-94.2433,2.0,271.88587,16.10872124,-99999.0,'11111222,11111222,99999999' 
TABS,ioos:station:wmo:42050:1,2014-04-04T03:00:00Z,28.8425,-94.2433,2.0,262.5923371,16.36658181,-99999.0,'11111222,11111222,99999999' 
TABS,ioos:station:wmo:42050:1,2014-04-04T03:30:00Z,28.8425,-94.2433,2.0,270.9955306,16.12243158,-99999.0,'11111222,11111222,99999999' 
TABS,ioos:station:wmo:42050:1,2014-04-04T04:00:00Z,28.8425,-94.2433,2.0,270.5344923,19.31083893,-99999.0,'11111222,11111222,99999999' 
TABS,ioos:station:wmo:42050:1,2014-04-04T04:30:00Z,28.8425,-94.2433,2.0,270.769635,20.11181245,-99999.0,'11111222,11111222,99999999' 
TABS,ioos:station:wmo:42050:1,2014-04-04T05:00:00Z,28.8425,-94.2433,2.0,274.1085235,18.14662503,-99999.0,'11111222,11111222,99999999' 
TABS,ioos:station:wmo:42050:1,2014-04-04T05:30:00Z,28.8425,-94.2433,2.0,287.0164169,19.92213342,-99999.0,'11111222,11111222,99999999' 
TABS,ioos:station:wmo:42050:1,2014-04-04T06:00:00Z,28.8425,-94.2433,2.0,278.1305043,20.15254326,-99999.0,'11111222,11111222,99999999' 
TABS,ioos:station:wmo:42050:1,2014-04-04T06:30:00Z,28.8425,-94.2433,2.0,278.9918356,19.00352073,-99999.0,'11111222,11111222,99999999' 
TABS,ioos:station:wmo:42050:1,2014-04-04T07:00:00Z,28.8425,-94.2433,2.0,287.390099,20.10910739,-99999.0,'11111222,11111222,99999999' 
TABS,ioos:station:wmo:42050:1,2014-04-04T07:30:00Z,28.8425,-94.2433,2.0,287.124132,16.0306207,-99999.0,'11111222,11111222,99999999' 
TABS,ioos:station:wmo:42050:1,2014-04-04T08:00:00Z,28.8425,-94.2433,2.0,299.1420528,16.61289258,-99999.0,'11111222,11111222,99999999' 
TABS,ioos:station:wmo:42050:1,2014-04-04T08:30:00Z,28.8425,-94.2433,2.0,294.2049411,14.65868343,-99999.0,'11111222,11111222,99999999' 
TABS,ioos:station:wmo:42050:1,2014-04-04T09:00:00Z,28.8425,-94.2433,2.0,296.2078755,14.33347481,-99999.0,'11111222,11111222,99999999' 
TABS,ioos:station:wmo:42050:1,2014-04-04T09:30:00Z,28.8425,-94.2433,2.0,297.0139452,10.85420656,-99999.0,'11111222,11111222,99999999' 
TABS,ioos:station:wmo:42050:1,2014-04-04T10:00:00Z,28.8425,-94.2433,2.0,299.0817382,10.389846,-99999.0,'11111222,11111222,99999999' 
TABS,ioos:station:wmo:42050:1,2014-04-04T10:30:00Z,28.8425,-94.2433,2.0,291.7477779,7.880913653,-99999.0,'11133222,11111222,99999999' 
TABS,ioos:station:wmo:42050:1,2014-04-04T11:00:00Z,28.8425,-94.2433,2.0,306.0478633,6.2706459,-99999.0,'11133222,11111222,99999999' 
TABS,ioos:station:wmo:42050:1,2014-04-04T11:30:00Z,28.8425,-94.2433,2.0,301.8493978,3.107925353,-99999.0,'11133222,11111222,99999999' 
TABS,ioos:station:wmo:42050:1,2014-04-04T12:00:00Z,28.8425,-94.2433,2.0,252.295589,3.222623155,-99999.0,'11133222,11111222,99999999' 
TABS,ioos:station:wmo:42050:1,2014-04-04T12:30:00Z,28.8425,-94.2433,2.0,237.7240102,1.797776404,-99999.0,'11133222,11111222,99999999' 
TABS,ioos:station:wmo:42050:1,2014-04-04T13:00:00Z,28.8425,-94.2433,2.0,218.4370011,0.804300939,-99999.0,'11133222,11111222,99999999' 
TABS,ioos:station:wmo:42050:1,2014-04-04T13:30:00Z,28.8425,-94.2433,2.0,184.2633005,3.900794791,-99999.0,'11133222,11111222,99999999' 
TABS,ioos:station:wmo:42050:1,2014-04-04T14:00:00Z,28.8425,-94.2433,2.0,205.7167142,2.719356542,-99999.0,'11133222,11111222,99999999' 
TABS,ioos:station:wmo:42050:1,2014-04-04T14:30:00Z,28.8425,-94.2433,2.0,176.5821266,7.884021816,-99999.0,'11133222,11111222,99999999' 
TABS,ioos:station:wmo:42050:1,2014-04-04T15:00:00Z,28.8425,-94.2433,2.0,196.7753782,13.65095235,-99999.0,'11111222,11111222,99999999' 
TABS,ioos:station:wmo:42050:1,2014-04-04T15:30:00Z,28.8425,-94.2433,2.0,213.9345452,24.02151119,-99999.0,'11111222,11111222,99999999' 
TABS,ioos:station:wmo:42050:1,2014-04-04T16:00:00Z,28.8425,-94.2433,2.0,223.0636143,21.55785008,-99999.0,'11111222,11111222,99999999' 
TABS,ioos:station:wmo:42050:1,2014-04-04T16:30:00Z,28.8425,-94.2433,2.0,224.9206995,25.64678732,-99999.0,'11111222,11111222,99999999' 
TABS,ioos:station:wmo:42050:1,2014-04-04T17:00:00Z,28.8425,-94.2433,2.0,231.121309,25.79384617,-99999.0,'11111222,11111222,99999999' 